Fort Payne, AL

1:53 PM CDT on July 23, 2017 (GMT -0500)
Fort Payne

Weather History for K4A9 - February, 2013

Change the Weather History Date:

Thursday, February 7, 2013

  Actual Average (KRMG) Record (KRMG)
Temperature  
Mean Temperature 48 °F -  
Max Temperature 53 °F 54 °F 72 °F (1999)
Min Temperature 42 °F 33 °F 22 °F (2015)
Degree Days  
Heating Degree Days 18    
Moisture  
Dew Point 41 °F    
Average Humidity 76    
Maximum Humidity 93    
Minimum Humidity 54    
Precipitation  
Precipitation 0.06 in - - ()
Sea Level Pressure  
Sea Level Pressure 30.02 in    
Wind  
Wind Speed 2 mph (ENE)    
Max Wind Speed 12 mph    
Max Gust Speed -    
Visibility 9 miles    
Events Rain    
Averages and records for this station are not official NWS values.
T = Trace of Precipitation, MM = Missing Value Source: NWS Daily Summary

Daily Weather History Graph

Daily Weather History Graph

Search for Another Location

Airport or City:

Trip Planner

Search our weather history database for the weather conditions in past years. The results will help you decide how hot, cold, wet, or windy it might be!

Date:

Astronomy

Feb. 07, 2013 Rise Set
Actual Time 6:35 AM CST 5:18 PM CST
Civil Twilight 6:09 AM CST 5:44 PM CST
Nautical Twilight 5:39 AM CST 6:14 PM CST
Astronomical Twilight 5:10 AM CST 6:44 PM CST
Moon 4:10 AM CST (2/7) 2:46 PM CST (2/7)
Length of Visible Light 11h 35m
Length of Day
10h 43m
Waning Crescent, 9% of the Moon is Illuminated
Feb 7
Waning Crescent
Feb 10
New
Feb 17
First Quarter
Feb 25
Full
Mar 4
Last Quarter

Hourly Weather History & Observations

Time (CST) Temp. Windchill Dew Point Humidity Pressure Visibility Wind Dir Wind Speed Gust Speed Precip Events Conditions
12:35 AM 42.8 °F - 35.6 °F 76% 30.11 in 10.0 mi Calm Calm - N/A   Scattered Clouds
12:55 AM 42.8 °F - 35.6 °F 76% 30.11 in 10.0 mi Calm Calm - N/A   Clear
1:15 AM 42.8 °F - 35.6 °F 76% 30.12 in 10.0 mi Calm Calm - N/A   Clear
1:35 AM 42.8 °F - 35.6 °F 76% 30.12 in 10.0 mi Calm Calm - N/A   Clear
1:55 AM 42.8 °F - 35.6 °F 76% 30.12 in 10.0 mi Calm Calm - N/A   Mostly Cloudy
2:15 AM 42.8 °F - 37.4 °F 81% 30.11 in 10.0 mi Calm Calm - N/A   Overcast
2:35 AM 42.8 °F - 35.6 °F 76% 30.11 in 10.0 mi Calm Calm - N/A   Overcast
2:55 AM 44.6 °F - 37.4 °F 76% 30.10 in 10.0 mi Calm Calm - N/A   Overcast
3:15 AM 42.8 °F - 37.4 °F 81% 30.08 in 10.0 mi Calm Calm - N/A   Overcast
3:55 AM 46.4 °F - 35.6 °F 66% 30.10 in 10.0 mi Calm Calm - N/A   Overcast
4:15 AM 46.4 °F - 35.6 °F 66% 30.12 in 10.0 mi Calm Calm - N/A Rain Rain
4:35 AM 46.4 °F 45.2 °F 37.4 °F 71% 30.11 in 10.0 mi East 3.5 mph - 0.01 in Rain Light Rain
4:55 AM 46.4 °F 45.2 °F 39.2 °F 76% 30.11 in 10.0 mi ESE 3.5 mph - 0.01 in Rain Light Rain
5:15 AM 44.6 °F - 41.0 °F 87% 30.12 in 10.0 mi Calm Calm - N/A   Light Drizzle
5:35 AM 44.6 °F 43.1 °F 41.0 °F 87% 30.12 in 10.0 mi ESE 3.5 mph - N/A   Drizzle
5:55 AM 44.6 °F - 41.0 °F 87% 30.12 in 10.0 mi Calm Calm - 0.01 in   Light Drizzle
6:15 AM 44.6 °F - 41.0 °F 87% 30.11 in 10.0 mi Calm Calm - N/A   Drizzle
6:35 AM 44.6 °F - 41.0 °F 87% 30.11 in 10.0 mi Calm Calm - N/A   Overcast
6:55 AM 44.6 °F - 42.8 °F 93% 30.11 in 10.0 mi Calm Calm - N/A   Overcast
7:15 AM 44.6 °F - 41.0 °F 87% 30.09 in 10.0 mi Calm Calm - N/A   Overcast
7:35 AM 50.0 °F - 35.6 °F 58% 30.09 in 10.0 mi Calm Calm - N/A   Overcast
7:55 AM 48.2 °F - 37.4 °F 66% 30.07 in 10.0 mi Calm Calm - N/A   Overcast
8:15 AM 50.0 °F - 37.4 °F 62% 30.06 in 10.0 mi NNE 4.6 mph - N/A   Overcast
8:35 AM 50.0 °F - 37.4 °F 62% 30.07 in 10.0 mi Calm Calm - N/A   Overcast
8:55 AM 50.0 °F - 37.4 °F 62% 30.06 in 10.0 mi ENE 5.8 mph - N/A   Overcast
9:15 AM 51.8 °F - 37.4 °F 58% 30.05 in 10.0 mi NNE 5.8 mph - N/A   Overcast
9:35 AM 51.8 °F - 37.4 °F 58% 30.05 in 10.0 mi NE 6.9 mph - N/A   Overcast
9:55 AM 51.8 °F - 37.4 °F 58% 30.05 in 10.0 mi ENE 4.6 mph - N/A   Overcast
10:15 AM 51.8 °F - 37.4 °F 58% 30.05 in 10.0 mi NE 6.9 mph - N/A   Overcast
10:35 AM 51.8 °F - 37.4 °F 58% 30.05 in 10.0 mi NE 5.8 mph - N/A   Overcast
10:55 AM 51.8 °F - 37.4 °F 58% 30.02 in 10.0 mi NE 5.8 mph - N/A   Overcast
11:15 AM 53.6 °F - 37.4 °F 54% 30.01 in 10.0 mi ENE 5.8 mph - N/A   Overcast
11:35 AM 53.6 °F - 37.4 °F 54% 30.01 in 10.0 mi Calm Calm - N/A   Overcast
11:55 AM 53.6 °F - 37.4 °F 54% 30.01 in 10.0 mi ENE 8.1 mph - N/A   Overcast
12:15 PM 51.8 °F - 37.4 °F 58% 29.99 in 10.0 mi ESE 11.5 mph - N/A   Overcast
12:35 PM 51.8 °F - 39.2 °F 62% 29.99 in 10.0 mi ENE 4.6 mph - N/A   Overcast
12:55 PM 51.8 °F - 41.0 °F 67% 29.98 in 10.0 mi East 6.9 mph - N/A   Overcast
1:15 PM 51.8 °F - 41.0 °F 67% 29.97 in 10.0 mi Calm Calm - N/A   Overcast
1:35 PM 50.0 °F - 42.8 °F 76% 29.96 in 10.0 mi ENE 4.6 mph - N/A Rain Light Rain
1:55 PM 50.0 °F - 42.8 °F 76% 29.96 in 5.0 mi NE 4.6 mph - N/A   Haze
2:15 PM 50.0 °F - 44.6 °F 82% 29.96 in 5.0 mi NE 5.8 mph - N/A   Light Drizzle
2:35 PM 50.0 °F - 44.6 °F 82% 29.95 in 7.0 mi NNE 4.6 mph - N/A   Overcast
2:55 PM 50.0 °F - 44.6 °F 82% 29.95 in 10.0 mi ENE 4.6 mph - N/A   Overcast
3:15 PM 50.0 °F - 44.6 °F 82% 29.95 in 10.0 mi ENE 4.6 mph - N/A   Overcast
3:35 PM 50.0 °F - 44.6 °F 82% 29.94 in 10.0 mi NE 9.2 mph - N/A   Overcast
3:55 PM 50.0 °F - 44.6 °F 82% 29.95 in 7.0 mi ENE 4.6 mph - N/A   Drizzle
4:15 PM 50.0 °F - 44.6 °F 82% 29.95 in 4.0 mi Calm Calm - 0.02 in Rain Light Rain
4:35 PM 48.2 °F - 44.6 °F 87% 29.95 in 4.0 mi NE 6.9 mph - 0.03 in Rain Rain
4:55 PM 48.2 °F - 44.6 °F 87% 29.95 in 7.0 mi Calm Calm - 0.03 in   Light Drizzle
5:15 PM 48.2 °F - 44.6 °F 87% 29.96 in 7.0 mi Calm Calm - 0.01 in   Light Drizzle
5:35 PM 48.2 °F - 44.6 °F 87% 29.95 in 5.0 mi Calm Calm - 0.01 in   Overcast
5:55 PM 48.2 °F - 44.6 °F 87% 29.95 in 5.0 mi Calm Calm - 0.01 in   Overcast
6:15 PM 48.2 °F - 44.6 °F 87% 29.96 in 5.0 mi Calm Calm - N/A   Overcast
6:35 PM 48.2 °F - 44.6 °F 87% 29.96 in 7.0 mi ENE 5.8 mph - N/A   Overcast
6:55 PM 50.0 °F - 44.6 °F 82% 29.95 in 7.0 mi East 4.6 mph - N/A   Light Drizzle
7:15 PM 50.0 °F - 44.6 °F 82% 29.96 in 10.0 mi Calm Calm - N/A   Overcast
7:35 PM 50.0 °F - 44.6 °F 82% 29.95 in 10.0 mi Calm Calm - N/A   Overcast
7:55 PM 50.0 °F - 44.6 °F 82% 29.95 in 10.0 mi Calm Calm - N/A   Overcast
8:15 PM 50.0 °F - 44.6 °F 82% 29.95 in 10.0 mi Calm Calm - N/A   Overcast
8:35 PM 50.0 °F - 44.6 °F 82% 29.96 in 10.0 mi Calm Calm - N/A   Overcast
8:55 PM 50.0 °F - 44.6 °F 82% 29.96 in 10.0 mi Calm Calm - N/A   Overcast
9:15 PM 50.0 °F - 44.6 °F 82% 29.96 in 10.0 mi Calm Calm - N/A   Overcast
9:35 PM 50.0 °F - 44.6 °F 82% 29.97 in 10.0 mi Calm Calm - N/A   Overcast
9:55 PM 50.0 °F - 44.6 °F 82% 29.97 in 10.0 mi Calm Calm - N/A   Overcast
10:15 PM 50.0 °F - 44.6 °F 82% 29.96 in 10.0 mi Calm Calm - N/A   Overcast
10:35 PM 50.0 °F - 44.6 °F 82% 29.94 in 10.0 mi Calm Calm - N/A   Overcast
10:55 PM 50.0 °F - 42.8 °F 76% 29.94 in 10.0 mi Calm Calm - N/A   Overcast
11:15 PM 50.0 °F - 42.8 °F 76% 29.95 in 10.0 mi Calm Calm - N/A   Overcast
11:35 PM 48.2 °F - 42.8 °F 82% 29.95 in 10.0 mi Calm Calm - N/A   Overcast
11:55 PM 46.4 °F - 42.8 °F 87% 29.95 in 10.0 mi Calm Calm - N/A   Overcast